This demonstration page uses our WeatherBlox Daily Observations layout. Learn more.

Left ArrowRight Arrow

41.12389, -100.76542

Hourly Observations for December 6, 2021

Temp ( °F °C ) Dew Point ( °F °C ) Humidity (%) Winds ( mph kmh ) Pressure ( in mb ) Visibility ( mi km ) Precip ( " mm )
12:53 am 00:53 Clear 24 -4.4 13 -10.6 62 62 NW 10 17 30.31 1026 10 16 0.00 0.00
1:53 am 01:53 Clear 19 -7.2 12 -11.1 74 74 WNW 9 15 30.35 1028 10 16 0.00 0.00
2:53 am 02:53 Mostly Cloudy 19 -7.2 12 -11.1 74 74 NW 7 11 30.37 1028 10 16 0.00 0.00
3:53 am 03:53 Mostly Cloudy 19 -7.2 12 -11.1 74 74 NNW 9 15 30.39 1029 10 16 0.00 0.00
4:53 am 04:53 Clear 18 -7.8 11 -11.7 74 74 NW 9 15 30.39 1029 10 16 0.00 0.00
5:53 am 05:53 Clear 17 -8.3 9 -12.8 70 70 NNW 10 17 30.40 1029 10 16 0.00 0.00
6:53 am 06:53 Clear 14 -10 8 -13.3 77 77 NW 6 9 30.40 1030 10 16 0.00 0.00
7:53 am 07:53 Clear 11 -11.7 6 -14.4 81 81 W 6 9 30.43 1030 10 16 0.00 0.00
8:53 am 08:53 Sunny 16 -8.9 9 -12.8 74 74 W 5 7 30.45 1031 10 16 0.00 0.00
9:53 am 09:53 Sunny 19 -7.2 10 -12.2 68 68 WNW 6 9 30.45 1031 10 16 0.00 0.00
10:53 am 10:53 Sunny 20 -6.7 9 -12.8 62 62 Calm 30.45 1031 10 16 0.00 0.00
11:53 am 11:53 Sunny 23 -5 10 -12.2 57 57 VRB 3 6 30.42 1030 10 16 0.00 0.00
12:53 pm 12:53 Sunny 26 -3.3 11 -11.7 53 53 Calm 30.36 1028 10 16 0.00 0.00
1:53 pm 13:53 Sunny 31 -0.6 11 -11.7 43 43 VRB 6 9 30.30 1026 10 16 0.00 0.00
2:53 pm 14:53 Sunny 31 -0.6 10 -12.2 42 42 S 9 15 30.25 1024 10 16 0.00 0.00
3:53 pm 15:53 Sunny 31 -0.6 11 -11.7 43 43 SSE 10 17 30.21 1023 10 16 0.00 0.00
4:53 pm 16:53 Sunny 29 -1.7 12 -11.1 49 49 S 9 15 30.18 1022 10 16 0.00 0.00
5:53 pm 17:53 Mostly Clear 27 -2.8 12 -11.1 53 53 SSE 8 13 30.16 1022 10 16 0.00 0.00
6:53 pm 18:53 Clear 27 -2.8 12 -11.1 53 53 SSE 9 15 30.14 1021 10 16 0.00 0.00
7:53 pm 19:53 Clear 27 -2.8 11 -11.7 51 51 SSE 12 19 30.12 1020 10 16 0.00 0.00
8:53 pm 20:53 Clear 29 -1.7 11 -11.7 47 47 S 15 24 30.08 1019 10 16 0.00 0.00
9:53 pm 21:53 Clear 29 -1.7 11 -11.7 47 47 S 16 26 30.04 1017 10 16 0.00 0.00
10:53 pm 22:53 Mostly Clear 30 -1.1 11 -11.7 45 45 S 15 24 30.02 1017 10 16 0.00 0.00
11:53 pm 23:53 Partly Cloudy 31 -0.6 12 -11.1 45 45 S 12 19 29.99 1016 10 16 0.00 0.00

Powered by AerisWeather